Temperature
18 19 19 20 17 14 17 18 19 20 21 22 23 22 21 20 20 20 21 20 20 19 18 17 16 15 14 13 13 13 12 12 12 11 11 11 11 10 10 10 10 10 10 10 10 11 11 11 11
18 19 19 19 15 16 17 18 19 21 22 23 23 23 21 21 21 21 21 20 20 19 18 17 16 15 14 14 13 13 12 12 11 11 11 11 11 10 10 10 10 10 11 11 11 11 11 11 11
18 19 19 15 15 16 18 19 19 21 23 23 23 22 21 21 21 21 21 21 20 19 18 18 16 15 14 14 13 12 12 11 11 11 11 11 10 10 10 11 11 11 11 11 11 11 12 12 12
19 19 19 15 17 17 19 19 20 21 22 23 22 21 20 20 21 21 21 20 20 19 18 18 17 15 14 14 13 12 12 11 11 11 11 10 10 10 11 11 11 11 11 11 12 12 12 12 12
19 19 16 16 17 18 18 20 22 20 21 22 22 20 20 20 21 21 20 20 20 19 18 18 17 16 14 13 13 12 12 11 11 11 10 10 10 11 11 11 11 11 11 11 11 12 12 12 12
19 17 15 16 17 19 19 21 21 20 21 21 21 19 19 20 20 20 20 20 19 19 18 17 16 15 14 13 12 12 11 11 11 10 10 10 10 11 11 11 11 11 11 11 11 11 11 12 12
18 15 16 17 17 19 20 21 21 20 20 21 21 19 18 19 19 19 19 19 18 18 18 17 16 15 14 13 12 12 11 11 11 10 10 10 10 10 10 11 11 11 11 11 11 11 11 11 11
19 15 17 16 18 19 20 21 21 21 21 21 21 19 19 19 19 19 18 18 18 17 17 16 16 15 14 12 12 11 11 11 10 10 10 10 10 10 10 10 10 11 11 11 11 11 11 11 11
19 15 16 17 18 19 19 20 21 21 21 21 21 20 20 20 19 18 17 17 17 16 16 16 15 14 13 12 12 11 11 11 10 10 10 10 10 10 10 10 10 10 10 10 10 10 10 10 11
19 15 17 18 19 19 19 19 20 20 20 20 20 20 19 19 18 18 17 17 17 16 16 15 14 14 13 12 11 11 11 10 10 10 10 10 10 9 9 9 9 9 10 10 10 10 10 10 10
18 16 17 19 20 20 19 19 20 19 18 19 19 19 19 18 18 18 17 17 17 17 16 15 14 14 13 12 11 11 11 10 10 10 10 9 9 9 9 9 9 9 9 9 9 9 10 10 10
18 18 19 19 20 19 19 19 19 19 19 20 19 19 19 18 18 18 17 17 16 16 16 15 14 13 13 12 12 11 11 10 10 10 9 9 9 9 9 9 9 8 8 9 9 9 9 9 9
18 18 19 19 19 19 19 19 18 19 19 19 19 18 18 18 18 17 17 17 16 16 16 15 14 13 13 12 12 11 11 10 10 10 9 9 9 9 9 8 8 8 8 8 8 8 8 8 8
18 18 18 19 19 19 18 18 17 19 19 19 18 18 18 18 17 17 17 17 16 16 16 15 14 13 13 12 12 11 11 10 10 10 9 9 9 9 9 8 8 8 8 8 8 8 8 7 7
18 17 16 17 17 18 18 16 16 19 19 18 18 18 17 17 17 17 17 17 17 16 16 15 14 13 13 12 12 11 11 10 10 10 9 9 9 9 9 8 8 8 8 8 7 7 7 7 7
17 16 15 16 17 17 17 16 16 19 18 17 17 17 17 17 17 17 16 16 16 16 15 14 14 13 12 12 11 11 11 10 10 10 9 9 9 9 9 8 8 8 8 8 7 7 7 7 7
15 14 15 16 17 16 16 16 16 18 18 17 17 17 16 16 16 16 16 16 16 16 15 14 13 13 12 12 11 11 10 10 10 9 9 9 9 9 9 8 8 8 8 7 7 7 7 7 7
14 15 15 16 17 16 15 15 15 17 17 16 16 16 16 16 15 15 15 15 15 15 14 14 13 12 12 11 11 10 10 10 10 9 9 9 9 9 8 8 8 8 8 7 7 7 7 6 6
15 15 15 15 16 16 15 15 15 16 15 14 15 15 15 15 15 15 15 15 15 14 14 13 13 12 12 11 11 10 10 10 10 9 9 9 9 9 8 8 8 8 7 7 7 7 7 6 6
15 14 14 15 16 16 15 14 15 14 14 15 15 15 15 14 14 14 14 14 14 14 14 13 13 12 12 11 11 10 10 10 10 9 9 9 9 9 8 8 8 8 7 7 7 6 6 6 6
15 15 15 15 15 15 15 14 14 14 15 15 15 15 15 15 14 14 14 14 14 14 13 13 13 12 11 11 11 10 10 10 9 9 9 9 9 9 8 8 8 7 7 7 6 6 6 5 5
14 15 15 15 14 13 14 13 13 14 13 12 13 13 14 14 14 14 14 13 13 13 13 13 12 12 12 11 11 11 10 10 10 10 9 9 9 8 8 8 7 7 7 6 6 6 5 5 5
15 16 16 15 14 13 13 13 13 13 13 12 11 13 14 14 14 14 14 13 13 13 13 12 12 12 12 11 11 11 11 10 10 10 9 9 8 8 8 7 7 7 6 6 6 5 5 5 5
15 15 14 11 11 12 12 12 12 12 13 13 11 12 13 14 14 14 13 13 12 12 12 12 12 12 12 11 11 11 10 10 10 9 9 9 8 8 7 7 7 6 6 6 5 5 5 5 4
14 13 12 12 11 11 12 12 13 14 13 13 13 12 13 13 13 13 13 13 12 12 12 12 12 12 11 11 11 11 10 10 9 9 9 8 8 7 7 7 6 6 6 5 5 5 5 4 4
13 13 12 12 11 12 13 12 13 14 14 15 15 13 13 13 13 14 13 13 13 12 12 12 12 12 11 11 11 10 10 9 9 8 8 8 7 7 6 6 6 5 5 5 5 4 4 4 3
12 12 12 12 12 12 12 13 14 15 13 13 13 12 12 13 13 14 13 13 13 12 12 12 11 11 11 10 10 10 9 9 8 8 7 7 7 6 6 6 5 5 5 5 4 4 4 3 3
13 12 11 11 12 11 12 13 14 15 14 12 11 11 12 12 13 13 13 13 13 12 12 11 11 11 10 10 10 9 9 8 8 7 7 7 6 6 5 5 5 5 5 4 4 4 3 3 3
13 13 12 11 11 11 12 13 14 14 13 12 11 12 12 13 13 13 13 13 12 12 11 11 10 10 10 9 9 8 8 8 7 7 6 6 6 5 5 5 5 4 4 4 3 3 3 2 2
12 12 12 11 11 10 10 12 14 13 13 12 12 13 13 13 14 13 13 12 12 11 11 10 10 9 9 9 8 8 7 7 7 6 6 6 5 5 4 4 4 4 3 3 3 2 2 2 1
Wind_Speed
4 4 3 4 5 5 3 5 4 3 3 2 4 7 7 5 4 4 2 14 11 16 24 25 23 21 19 18 17 16 15 14 14 13 12 12 13 13 13 12 12 12 12 13 13 13 13 13 13
3 2 4 5 5 1 5 4 4 5 6 4 3 5 6 2 2 6 6 12 16 22 23 23 24 22 20 19 18 16 15 14 14 13 12 12 12 12 12 12 11 11 11 11 11 12 12 11 11
3 2 4 5 3 4 3 4 6 4 4 4 2 4 5 4 3 7 7 15 17 20 23 24 25 23 21 20 18 17 15 14 14 13 12 11 11 11 11 11 10 10 10 10 10 10 10 10 10
3 4 5 4 3 5 5 6 6 4 1 2 4 4 3 2 3 5 9 16 17 16 22 24 25 23 22 20 19 17 16 15 14 13 12 11 11 10 10 9 9 9 9 9 9 9 9 9 8
4 4 4 2 4 5 4 5 5 5 3 0 3 4 2 8 3 8 14 16 17 14 21 24 26 24 22 21 19 18 16 15 14 13 12 11 11 10 9 9 8 8 7 7 7 7 7 7 7
4 5 4 2 5 4 4 3 3 4 2 2 3 4 1 4 3 8 11 13 13 15 20 23 25 24 23 21 20 19 17 16 15 13 12 12 11 10 9 8 7 7 6 6 5 5 5 5 5
4 4 2 3 4 3 3 1 4 4 4 1 3 5 2 3 4 8 10 10 11 16 17 19 22 23 23 22 20 19 18 17 16 14 13 12 11 9 9 8 7 6 5 4 3 3 3 2 3
5 4 1 2 2 2 5 3 2 2 2 1 4 8 6 7 6 7 8 9 11 11 12 15 18 20 20 21 21 20 19 17 16 15 14 13 12 10 9 8 7 6 5 3 2 1 1 1 1
5 4 1 2 0 2 3 3 6 3 3 3 4 3 4 7 8 8 7 6 9 11 11 13 15 17 18 19 20 20 19 18 17 16 15 14 12 11 10 10 8 7 6 4 3 3 3 3 4
5 3 5 4 3 3 1 0 3 3 3 2 3 3 4 7 8 9 9 11 12 13 13 11 12 15 17 17 18 17 17 17 16 15 15 14 13 12 11 12 11 9 8 6 6 5 6 5 5
5 6 5 4 3 4 3 2 1 1 4 5 5 6 6 6 7 9 10 10 12 14 15 13 12 16 16 13 14 13 14 15 15 16 16 15 13 11 11 11 11 11 9 8 7 7 6 7 8
3 5 4 4 3 3 4 3 2 5 8 6 7 8 8 8 8 9 10 10 9 12 15 14 13 13 15 14 13 13 12 12 12 14 16 14 10 9 10 10 11 11 11 10 9 9 10 10 11
3 4 4 4 5 5 5 5 4 7 8 5 4 7 8 7 7 7 7 8 9 12 13 14 13 12 13 12 11 12 12 12 14 14 16 15 11 9 10 10 11 12 12 11 10 10 10 10 11
4 4 6 8 8 5 6 5 4 10 6 4 5 6 6 5 5 4 5 6 9 11 12 13 14 12 13 9 8 10 12 13 13 13 15 15 13 11 9 9 9 11 12 12 11 11 10 9 9
2 5 9 7 6 5 4 6 7 9 5 5 5 5 4 2 2 3 4 6 9 10 11 12 13 11 11 10 10 10 12 12 11 12 14 14 13 12 10 8 7 10 12 11 9 9 8 6 6
4 3 5 7 2 3 6 8 9 5 7 7 6 4 3 1 0 1 2 4 7 8 9 10 11 11 10 9 9 9 10 10 10 11 11 13 13 12 9 7 7 9 9 8 5 4 4 5 5
2 2 5 7 3 4 5 8 8 3 7 8 7 6 5 2 2 2 1 3 6 8 9 9 10 11 10 8 8 8 9 8 9 9 9 10 10 10 8 7 8 8 6 5 4 4 4 5 6
5 5 5 6 4 5 7 10 10 6 7 9 8 7 6 5 2 2 3 5 6 7 8 9 9 10 9 6 5 5 4 4 5 6 6 7 7 8 7 6 7 6 3 3 3 4 4 4 5
6 6 8 8 6 6 10 12 12 9 7 8 9 8 8 6 3 4 5 6 7 7 8 8 9 8 8 5 5 4 3 2 2 3 4 4 5 5 5 4 4 4 3 4 4 3 4 3 2
7 8 8 8 4 4 8 12 12 10 10 11 14 12 10 8 6 5 5 5 6 6 7 8 8 8 7 5 4 3 4 2 2 1 1 1 2 3 4 4 3 3 3 3 3 3 2 3 2
8 8 7 7 5 5 5 9 8 6 5 7 10 11 11 12 10 8 6 6 6 6 7 7 8 8 7 7 5 5 4 3 2 1 1 2 3 3 3 3 3 3 3 3 4 3 4 4 3
8 8 7 5 2 5 1 6 8 6 4 7 10 10 11 10 9 8 8 7 6 5 6 8 8 8 7 7 7 6 4 3 2 1 1 2 2 2 3 3 3 2 1 3 3 3 3 4 4
9 6 4 3 3 4 3 5 9 3 7 10 11 12 12 12 12 11 9 8 6 6 7 7 8 7 6 7 7 7 4 3 1 1 0 1 2 2 2 2 1 1 2 3 3 3 4 3 4
6 4 4 5 3 4 7 8 8 6 10 10 11 13 13 12 11 10 8 7 6 6 6 7 8 6 6 7 7 7 7 5 3 1 0 1 2 2 2 2 1 2 2 3 4 4 5 5 5
5 5 2 3 1 7 5 6 10 10 9 12 18 18 14 13 13 12 11 10 8 8 7 7 8 6 6 7 6 6 6 5 4 3 2 1 1 1 2 2 2 2 4 5 5 4 5 5 6
7 9 7 6 6 6 3 8 9 7 7 8 12 14 14 13 13 14 13 11 10 10 9 8 8 7 6 6 6 5 5 4 3 3 2 2 2 2 2 3 3 5 6 6 5 4 6 5 6
8 7 8 5 3 4 7 7 8 3 2 5 11 14 16 16 14 14 13 12 11 11 9 9 9 7 7 6 6 5 4 4 3 2 1 1 2 2 3 3 4 5 6 6 5 5 6 6 7
8 8 5 6 5 5 7 6 6 6 5 6 12 16 16 14 13 13 13 13 11 10 9 9 9 8 7 6 5 4 4 3 2 1 1 1 2 2 3 4 4 5 5 5 5 6 6 7 7
7 5 6 6 5 6 5 7 6 8 8 11 14 15 17 17 16 15 13 12 11 9 9 9 8 7 7 6 5 4 3 2 2 1 1 2 2 3 4 5 6 6 7 7 6 7 8 8 9
9 9 9 6 6 6 4 8 6 5 7 9 11 11 12 14 14 13 12 11 10 10 10 9 9 8 7 6 5 4 3 2 1 1 3 3 3 4 5 5 6 7 8 8 8 9 9 9 10
Wind_Direction
326 359 67 56 56 49 279 261 205 162 123 192 138 112 119 136 155 172 180 149 150 155 168 168 166 163 158 152 146 141 136 131 126 122 117 111 108 102 97 93 87 82 80 78 75 74 73 71 70
9 40 58 61 85 74 279 259 168 156 165 161 97 99 103 122 185 145 140 160 153 157 166 166 167 165 160 155 151 147 144 138 133 129 124 117 111 106 101 97 92 88 84 82 79 77 75 73 71
359 67 81 74 117 185 234 219 177 171 170 133 96 81 131 167 188 184 185 154 151 159 164 167 168 166 163 159 156 153 151 146 140 136 131 126 119 112 106 101 97 94 90 87 84 81 79 77 73
51 50 59 79 228 230 215 213 181 140 95 96 115 80 82 338 227 202 147 147 151 158 163 168 168 168 166 162 160 158 156 152 147 144 140 135 128 120 114 109 105 101 97 92 89 85 80 77 75
62 73 63 13 259 259 236 214 164 128 141 31 120 113 32 332 12 125 141 151 155 158 164 170 170 170 168 166 165 163 161 158 154 152 149 142 137 131 127 122 116 110 104 97 92 88 83 77 72
54 66 81 277 273 269 258 241 121 94 79 28 90 105 270 320 99 135 146 154 157 160 166 171 172 172 171 170 169 167 166 164 161 159 158 152 147 144 141 136 130 125 117 108 99 91 82 72 64
102 94 168 244 276 299 296 308 106 110 88 96 124 116 261 280 183 151 143 147 154 162 166 171 174 174 174 173 172 171 171 170 168 167 166 161 157 158 156 153 149 144 136 126 117 104 88 70 49
126 101 5 292 288 332 322 1 38 103 159 214 113 143 206 216 181 134 126 139 153 162 167 170 173 173 175 176 175 175 176 176 174 173 171 169 168 169 169 169 170 169 167 166 170 177 197 311 324
94 79 271 263 297 292 327 24 339 333 68 33 48 163 210 143 130 120 118 132 156 167 171 171 171 173 174 175 178 178 179 181 179 177 175 172 173 175 177 178 188 193 197 204 219 242 260 272 282
98 148 232 231 210 210 230 263 317 10 360 8 34 32 92 122 142 153 163 167 171 176 178 175 174 173 174 178 181 181 180 184 182 180 177 174 177 183 187 190 199 205 211 222 237 253 265 271 269
161 196 236 256 224 192 204 261 271 170 257 224 199 179 159 160 173 184 189 185 183 178 179 181 177 175 175 177 177 179 180 182 182 181 180 180 183 189 194 198 209 215 218 226 243 258 264 263 262
213 246 248 258 232 204 214 230 261 213 229 217 192 175 171 178 193 202 202 200 183 175 183 182 179 177 177 176 177 178 178 181 183 185 186 183 182 188 193 200 206 209 215 222 234 244 253 257 259
231 261 284 271 265 244 230 232 244 248 239 217 173 157 174 185 203 214 208 196 182 182 182 181 179 178 177 174 177 179 182 186 189 191 193 191 189 193 196 204 207 212 218 224 232 239 248 253 258
240 263 287 281 269 250 228 250 228 258 230 190 164 166 177 185 202 211 211 196 187 184 179 176 178 177 173 173 173 178 182 187 191 193 197 197 197 198 199 204 208 215 220 226 231 234 238 245 252
289 316 313 288 252 235 177 276 240 244 182 172 169 162 155 174 184 211 214 198 185 179 171 171 174 171 168 167 169 173 178 182 186 193 199 199 200 200 199 204 211 221 226 229 233 239 240 246 250
8 352 303 295 234 171 149 256 267 241 167 179 181 167 151 161 225 264 219 175 166 159 157 164 168 165 165 164 164 165 172 177 184 191 197 202 206 207 202 206 220 227 226 225 226 230 238 248 251
357 267 264 295 234 177 189 245 265 225 169 184 187 175 161 137 58 27 80 138 146 148 148 150 153 159 160 154 153 155 161 169 181 188 195 204 209 213 211 216 228 230 225 227 234 238 235 252 259
238 244 260 272 270 196 223 250 265 249 197 192 189 178 168 153 148 92 84 100 117 125 132 136 141 149 146 138 132 130 133 144 161 176 192 201 210 216 217 223 233 231 223 235 240 250 249 251 263
220 245 266 265 257 218 238 255 261 248 212 196 191 184 176 166 146 99 90 96 102 110 119 128 133 142 141 139 140 136 137 134 133 163 184 196 208 216 215 223 231 224 225 236 240 248 261 265 261
229 252 268 285 285 233 258 266 260 238 214 197 188 185 178 162 146 120 103 99 110 122 122 123 129 136 139 138 134 129 127 124 123 120 139 219 231 236 226 223 230 231 236 257 254 241 261 267 234
231 229 244 261 302 306 296 295 276 259 214 192 187 181 176 168 161 151 134 124 122 129 136 133 129 128 127 125 114 96 80 68 61 39 330 304 280 263 251 243 238 239 227 250 258 246 242 264 264
236 230 224 243 269 285 282 289 282 256 220 196 189 182 179 170 159 156 150 144 144 146 135 128 126 122 123 124 128 132 137 154 190 202 256 307 313 294 278 263 252 247 240 256 262 249 237 240 265
217 215 204 214 205 281 245 233 279 246 225 218 199 190 183 174 165 162 160 154 146 141 134 129 122 120 123 123 131 131 133 152 151 114 9 336 342 341 327 301 279 271 263 264 271 273 256 235 243
168 94 47 46 81 273 227 198 272 228 218 206 197 193 184 174 165 156 151 143 137 136 132 132 127 125 126 125 129 138 146 149 137 125 105 342 338 341 342 332 312 290 279 272 271 267 264 254 252
127 112 7 318 307 249 217 200 249 247 227 199 192 190 183 174 165 160 160 160 157 154 151 145 140 138 138 133 134 141 147 149 154 161 170 192 316 316 313 319 298 286 281 280 277 272 271 263 259
179 161 179 213 231 272 242 223 252 269 260 207 183 175 173 175 173 171 171 169 167 166 162 157 152 149 148 142 139 138 139 140 151 162 171 198 230 255 274 296 295 293 294 294 287 278 274 269 264
158 197 185 162 248 268 272 276 300 296 15 144 156 165 179 182 180 177 174 173 172 171 170 166 159 154 154 149 141 140 141 142 154 164 169 215 255 269 293 301 299 300 299 294 289 279 279 277 269
161 163 136 163 201 242 273 266 253 259 228 180 177 183 187 184 183 180 179 178 176 173 168 163 159 158 156 152 151 151 156 157 158 156 229 275 286 292 303 304 300 297 295 292 289 284 279 278 274
160 172 177 177 184 184 251 269 234 238 214 199 199 193 188 187 188 185 183 179 171 165 162 162 161 154 155 156 153 147 154 151 145 181 252 270 279 290 295 296 297 297 295 293 289 284 283 279 280
183 185 165 178 223 198 202 267 280 267 222 204 203 198 194 192 188 183 177 171 170 169 167 165 163 160 163 159 152 153 155 152 177 252 270 275 283 287 287 291 292 291 290 288 286 286 285 280 281
Height
1536 1537 1539 1541 1545 1555 1555 1547 1540 1537 1536 1535 1535 1535 1538 1541 1545 1550 1546 1544 1545 1546 1547 1549 1551 1553 1554 1555 1556 1557 1558 1559 1559 1559 1560 1560 1560 1560 1559 1559 1559 1559 1558 1558 1558 1557 1557 1557 1557
1537 1538 1541 1541 1551 1562 1556 1543 1539 1534 1534 1534 1534 1535 1537 1539 1540 1542 1542 1543 1544 1545 1546 1548 1550 1552 1554 1555 1556 1557 1558 1559 1559 1560 1560 1560 1560 1560 1560 1560 1559 1559 1559 1559 1558 1558 1558 1558 1557
1538 1539 1541 1544 1553 1558 1550 1540 1536 1533 1533 1533 1534 1535 1537 1539 1540 1540 1541 1542 1543 1545 1546 1548 1550 1552 1553 1555 1556 1557 1558 1559 1560 1560 1561 1561 1561 1561 1560 1560 1560 1560 1559 1559 1559 1559 1558 1558 1558
1538 1540 1542 1548 1550 1546 1541 1537 1534 1533 1533 1533 1534 1536 1538 1539 1540 1540 1541 1541 1543 1544 1546 1547 1549 1551 1553 1554 1556 1557 1558 1559 1560 1560 1561 1561 1561 1561 1561 1561 1561 1560 1560 1560 1560 1560 1559 1559 1559
1539 1540 1546 1552 1548 1540 1535 1533 1532 1532 1532 1533 1534 1536 1537 1538 1539 1540 1540 1541 1542 1544 1545 1547 1549 1550 1552 1554 1555 1556 1558 1559 1560 1560 1561 1561 1562 1561 1561 1561 1561 1561 1561 1561 1561 1561 1560 1560 1560
1540 1541 1553 1554 1546 1538 1535 1532 1531 1532 1532 1533 1534 1536 1536 1538 1538 1539 1540 1542 1543 1544 1545 1546 1548 1550 1551 1553 1554 1556 1557 1559 1560 1560 1561 1562 1562 1562 1562 1562 1562 1562 1562 1562 1562 1562 1561 1561 1561
1541 1545 1550 1548 1546 1540 1535 1533 1532 1532 1532 1533 1534 1536 1536 1537 1538 1539 1540 1541 1543 1544 1544 1546 1547 1549 1551 1552 1554 1555 1557 1558 1559 1560 1561 1562 1562 1562 1562 1562 1562 1562 1562 1562 1562 1562 1562 1562 1562
1539 1544 1547 1548 1544 1540 1535 1533 1533 1532 1532 1533 1534 1535 1535 1536 1537 1538 1539 1540 1542 1543 1544 1545 1546 1548 1550 1552 1553 1555 1556 1558 1559 1560 1561 1562 1562 1562 1562 1563 1563 1563 1563 1563 1563 1562 1562 1562 1562
1539 1547 1550 1545 1542 1539 1535 1534 1533 1533 1532 1532 1533 1533 1534 1535 1536 1537 1538 1539 1540 1541 1542 1544 1545 1547 1549 1551 1553 1554 1556 1557 1559 1560 1560 1561 1562 1562 1562 1562 1563 1563 1563 1563 1562 1562 1562 1562 1562
1538 1548 1543 1538 1536 1536 1535 1534 1533 1532 1531 1531 1532 1532 1532 1533 1534 1535 1535 1536 1536 1538 1540 1542 1544 1545 1547 1549 1551 1553 1555 1556 1558 1559 1560 1560 1561 1561 1562 1562 1562 1562 1562 1562 1562 1562 1562 1562 1562
1536 1540 1536 1534 1534 1533 1533 1532 1531 1531 1531 1530 1530 1530 1531 1532 1532 1533 1533 1533 1534 1536 1538 1540 1542 1544 1546 1548 1550 1552 1554 1555 1557 1558 1559 1559 1560 1560 1561 1561 1561 1561 1561 1561 1561 1561 1561 1561 1560
1536 1534 1533 1532 1532 1531 1530 1529 1529 1528 1527 1527 1528 1528 1529 1529 1529 1530 1530 1531 1532 1533 1535 1537 1540 1542 1544 1546 1548 1550 1552 1554 1555 1557 1558 1558 1559 1559 1560 1560 1560 1560 1560 1560 1560 1560 1559 1559 1558
1534 1533 1531 1530 1530 1529 1528 1527 1527 1524 1524 1525 1525 1526 1526 1526 1527 1527 1527 1528 1529 1531 1532 1535 1537 1540 1542 1545 1547 1549 1551 1553 1554 1555 1556 1557 1557 1558 1558 1558 1558 1559 1559 1558 1558 1558 1557 1557 1556
1532 1531 1529 1527 1526 1525 1525 1524 1525 1520 1521 1522 1522 1523 1523 1524 1524 1524 1524 1525 1526 1528 1530 1532 1535 1538 1540 1543 1545 1547 1549 1551 1553 1554 1555 1555 1556 1556 1557 1557 1557 1557 1557 1556 1556 1555 1554 1554 1553
1531 1530 1528 1523 1522 1522 1524 1525 1521 1518 1519 1520 1520 1521 1521 1521 1521 1520 1520 1521 1523 1525 1527 1530 1533 1536 1538 1541 1544 1546 1548 1549 1551 1552 1553 1554 1554 1555 1555 1555 1555 1555 1555 1554 1553 1553 1552 1551 1550
1531 1534 1536 1525 1521 1521 1526 1528 1517 1515 1516 1517 1518 1518 1518 1518 1518 1518 1518 1519 1520 1523 1525 1528 1531 1533 1536 1539 1542 1544 1546 1548 1549 1550 1551 1552 1552 1553 1553 1553 1553 1552 1552 1551 1550 1550 1549 1547 1546
1537 1540 1536 1528 1521 1521 1524 1524 1515 1514 1514 1514 1515 1516 1516 1516 1516 1516 1516 1517 1519 1521 1523 1526 1528 1531 1535 1538 1540 1542 1544 1546 1547 1548 1549 1550 1550 1550 1550 1550 1550 1549 1549 1548 1547 1546 1545 1543 1542
1540 1538 1534 1530 1521 1521 1523 1520 1513 1512 1512 1511 1512 1513 1514 1514 1514 1515 1515 1516 1517 1519 1522 1524 1527 1530 1533 1536 1539 1541 1542 1544 1545 1546 1547 1547 1547 1547 1547 1547 1546 1546 1545 1544 1543 1542 1541 1539 1537
1531 1533 1533 1527 1519 1520 1520 1517 1511 1508 1509 1509 1509 1510 1511 1512 1513 1514 1514 1515 1517 1518 1520 1523 1525 1528 1531 1534 1536 1538 1540 1542 1543 1544 1544 1545 1545 1544 1544 1543 1543 1542 1541 1540 1539 1538 1536 1535 1533
1529 1532 1530 1524 1517 1518 1518 1514 1506 1503 1503 1502 1503 1505 1508 1509 1511 1512 1514 1515 1516 1518 1520 1522 1524 1527 1529 1532 1535 1537 1539 1540 1541 1542 1542 1542 1542 1541 1541 1540 1539 1538 1537 1536 1535 1534 1532 1530 1530
1526 1528 1526 1524 1519 1516 1517 1514 1505 1498 1497 1498 1500 1502 1504 1506 1508 1510 1512 1514 1515 1517 1519 1521 1523 1526 1528 1531 1533 1535 1537 1538 1539 1539 1539 1539 1538 1538 1537 1536 1536 1535 1533 1532 1531 1530 1528 1526 1525
1525 1519 1520 1521 1525 1528 1521 1528 1507 1499 1497 1496 1497 1499 1501 1504 1506 1508 1511 1513 1515 1517 1519 1521 1523 1525 1527 1529 1531 1533 1534 1535 1536 1536 1536 1536 1535 1535 1534 1533 1532 1531 1530 1528 1527 1525 1524 1522 1520
1517 1514 1516 1517 1522 1527 1524 1527 1510 1499 1498 1495 1494 1495 1498 1501 1504 1506 1509 1512 1514 1516 1518 1520 1522 1524 1526 1528 1530 1531 1532 1533 1534 1534 1534 1533 1533 1532 1531 1530 1529 1527 1526 1524 1523 1521 1520 1518 1516
1511 1515 1519 1526 1528 1534 1523 1527 1513 1499 1490 1487 1490 1492 1495 1498 1502 1505 1508 1511 1513 1515 1517 1520 1521 1523 1525 1527 1528 1529 1530 1531 1531 1531 1531 1530 1530 1529 1528 1526 1525 1524 1522 1520 1519 1517 1515 1513 1511
1512 1524 1535 1534 1539 1533 1516 1519 1505 1483 1479 1479 1482 1486 1491 1495 1499 1502 1505 1508 1511 1514 1516 1518 1520 1522 1524 1526 1527 1528 1528 1529 1529 1528 1528 1527 1526 1525 1524 1523 1521 1520 1518 1516 1514 1512 1510 1507 1505
1512 1518 1532 1536 1535 1525 1512 1514 1492 1478 1474 1474 1477 1483 1488 1493 1496 1499 1502 1506 1509 1512 1515 1517 1519 1521 1523 1524 1525 1526 1526 1526 1526 1526 1525 1524 1523 1522 1520 1519 1517 1515 1513 1511 1509 1506 1504 1501 1499
1510 1514 1513 1523 1522 1524 1514 1500 1485 1475 1474 1474 1477 1482 1486 1489 1493 1496 1500 1504 1507 1510 1513 1515 1517 1519 1521 1522 1523 1524 1524 1524 1524 1523 1522 1521 1520 1518 1516 1515 1513 1511 1508 1506 1503 1500 1497 1495 1492
1499 1504 1516 1522 1527 1528 1515 1502 1492 1479 1476 1477 1478 1480 1482 1486 1490 1494 1497 1501 1504 1508 1511 1513 1516 1517 1519 1520 1521 1521 1521 1521 1520 1520 1519 1517 1516 1514 1512 1510 1508 1505 1503 1500 1497 1494 1491 1487 1485
1500 1504 1506 1513 1517 1523 1519 1503 1478 1475 1472 1474 1474 1476 1479 1482 1486 1490 1494 1498 1502 1505 1508 1510 1513 1515 1516 1517 1518 1518 1518 1518 1517 1516 1515 1513 1511 1509 1507 1505 1502 1500 1497 1493 1490 1487 1484 1480 1477
1492 1494 1501 1512 1511 1512 1514 1501 1471 1470 1469 1470 1472 1474 1477 1480 1483 1487 1491 1495 1498 1501 1504 1507 1510 1512 1513 1514 1515 1515 1515 1514 1513 1512 1511 1509 1507 1505 1502 1499 1497 1494 1490 1487 1483 1480 1476 1473 1469